Weather History for Del Bajio, Mexico

Change the Weather History Date:

Wednesday, January 23, 2013

  Actual Average Record
Temperature  
Mean Temperature 62 °F -  
Max Temperature 78 °F 73 °F 84 °F (2008)
Min Temperature 46 °F 43 °F 37 °F (2000)
Degree Days  
Heating Degree Days 3    
Growing Degree Days 12 (Base 50)    
Moisture  
Dew Point 43 °F    
Average Humidity 56    
Maximum Humidity 87    
Minimum Humidity 28    
Precipitation  
Precipitation 0.00 in - - ()
Sea Level Pressure  
Sea Level Pressure 30.26 in    
Wind  
Wind Speed 5 mph ()    
Max Wind Speed 12 mph    
Max Gust Speed -    
Visibility 8.2 miles    
Events      
Averages and records for this station are not official NWS values.
T = Trace of Precipitation, MM = Missing Value Source: Averaged Metar Reports

Daily Weather History Graph

Daily Weather History Graph

Search for Another Location

Airport:

Trip Planner

Search our weather history database for the weather conditions in past years. The results will help you decide how hot, cold, wet, or windy it might be!

Date:

Astronomy

Jan. 23, 2013 Rise Set
Actual Time 7:24 AM CST 6:31 PM CST
Civil Twilight 7:01 AM CST 6:54 PM CST
Nautical Twilight 6:34 AM CST 7:21 PM CST
Astronomical Twilight 6:07 AM CST 7:48 PM CST
Moon 3:48 PM CST (1/23) 4:32 AM CST (1/23)
Length of Visible Light 11h 53m
Length of Day
11h 06m
Waxing Gibbous, 89% of the Moon is Illuminated
Jan 23
Waxing Gibbous
Jan 26
Full
Feb 3
Last Quarter
Feb 10
New
Feb 17
First Quarter

Hourly Weather History & Observations

Time (CST) Temp. Dew Point Humidity Pressure Visibility Wind Dir Wind Speed Gust Speed Precip Events Conditions
12:43 AM 57.2 °F 37.4 °F 48% 30.33 in 8.0 mi ENE 5.8 mph - N/A   Scattered Clouds
1:43 AM 53.6 °F 42.8 °F 67% 30.33 in 8.0 mi NE 11.5 mph - N/A   Scattered Clouds
2:41 AM 53.6 °F 37.4 °F 54% 29.98 in 8.0 mi ENE 8.1 mph - N/A   Scattered Clouds
3:43 AM 51.8 °F 42.8 °F 71% 30.33 in 8.0 mi ENE 4.6 mph - N/A   Scattered Clouds
4:43 AM 51.8 °F 42.8 °F 71% 30.33 in 8.0 mi NE 9.2 mph - N/A   Scattered Clouds
5:40 AM 51.8 °F 42.8 °F 71% 30.05 in 8.0 mi NE 8.1 mph - N/A   Scattered Clouds
6:46 AM 48.2 °F 42.8 °F 82% 30.39 in 8.0 mi NE 6.9 mph - N/A   Mostly Cloudy
7:45 AM 46.4 °F 42.8 °F 87% 30.39 in 8.0 mi Calm Calm - N/A   Scattered Clouds
8:42 AM 51.8 °F 42.8 °F 71% 30.20 in 8.0 mi Calm Calm - N/A   Scattered Clouds
9:44 AM 60.8 °F 42.8 °F 52% 30.44 in 8.0 mi Calm Calm - N/A   Scattered Clouds
10:52 AM 64.4 °F 44.6 °F 49% 30.44 in 8.0 mi Calm Calm - N/A   Scattered Clouds
11:47 AM 69.8 °F 44.6 °F 40% 30.12 in 8.0 mi Calm Calm - N/A   Scattered Clouds
12:40 PM 71.6 °F 42.8 °F 35% 30.38 in 8.0 mi SW 6.9 mph - N/A   Scattered Clouds
1:47 PM 75.2 °F 42.8 °F 31% 30.35 in 8.0 mi Calm Calm - N/A   Scattered Clouds
2:45 PM 78.8 °F 42.8 °F 28% 29.94 in 10.0 mi SSW 8.1 mph - N/A   Scattered Clouds
5:59 PM 66.2 °F 41.0 °F 40% 29.99 in 10.0 mi ENE 6.9 mph - N/A   Mostly Cloudy
6:44 PM 64.4 °F 41.0 °F 42% 30.33 in 8.0 mi East 10.4 mph - N/A   Mostly Cloudy
7:45 PM 62.6 °F 46.4 °F 55% 30.35 in 8.0 mi NE 10.4 mph - N/A   Mostly Cloudy
8:45 PM 62.6 °F 42.8 °F 48% 30.09 in 8.0 mi NE 5.8 mph - N/A   Mostly Cloudy
9:49 PM 59.0 °F 42.8 °F 55% 30.39 in 8.0 mi ENE 6.9 mph - N/A   Mostly Cloudy
10:47 PM 57.2 °F 44.6 °F 63% 30.40 in 8.0 mi ENE 11.5 mph - N/A   Mostly Cloudy
11:50 PM 55.4 °F 44.6 °F 67% 30.11 in 8.0 mi East 6.9 mph - N/A   Scattered Clouds